Lapse_Rate
-0.5 -0.6 -0.6 -0.6 -0.6 -0.5 -0.5 -0.4 -0.2 -0.6 -0.9 -1.0 -1.2 -0.9 -0.5 -0.6 0.6 -1.6 -2.3 1.2 1.1 1.9 0.8 -1.3 1.9 0.6 0.6 1.1 0.8 2.4 6.5 6.5 6.5 6.5 6.5 5.8 6.4 5.5 5.1 4.9 5.2 4.2 4.3 3.5 1.2
-0.8 -0.7 -0.7 -0.7 -0.6 -0.7 -0.7 -0.7 -0.6 -0.9 -0.9 -0.9 -0.9 -0.4 -0.3 -0.6 0.7 -1.1 2.2 2.8 2.4 2.1 -0.8 0.0 1.9 1.0 0.1 2.1 1.1 4.7 6.5 6.5 6.5 6.4 6.5 5.9 6.2 5.6 6.0 5.7 5.5 5.3 2.3 1.4 1.2
-0.6 -0.8 -0.8 -0.7 -0.8 -1.0 -1.0 -1.0 -1.0 -0.9 -0.8 -0.7 -0.7 -0.7 -0.6 -0.6 3.2 2.2 2.6 2.1 1.7 0.7 -1.3 0.4 1.0 2.6 3.2 3.0 3.8 5.5 6.5 6.5 6.3 5.8 5.6 5.8 6.1 4.8 5.9 6.5 3.8 3.5 2.2 1.1 1.5
-0.7 -0.9 -1.2 -1.3 -1.2 -1.1 -1.2 -1.4 -1.2 -1.1 -0.8 -1.1 -0.9 -0.8 -0.8 0.6 6.5 2.0 2.3 1.2 1.1 -0.2 -0.2 2.3 2.5 3.6 5.7 6.5 4.9 6.4 6.0 6.0 6.0 5.1 5.8 6.4 5.2 5.9 4.8 5.1 4.3 3.1 0.9 0.6 0.9
-1.0 -1.1 -1.4 -1.5 -1.5 -1.5 -1.5 -1.5 -1.2 -1.0 -1.1 -1.1 -0.8 -0.6 0.5 1.3 3.4 2.6 1.0 -0.3 0.3 -0.2 -1.4 1.6 1.7 4.2 6.5 5.9 5.6 6.4 6.4 5.4 5.4 5.5 5.6 5.7 5.7 5.9 4.0 2.8 3.4 2.1 1.9 1.1 0.7
-1.1 -1.5 -1.7 -1.8 -1.8 -1.8 -1.7 -1.5 -1.3 -1.1 -1.4 -1.2 -0.4 0.2 2.6 5.1 3.4 1.3 -0.8 -0.3 -1.1 -0.7 -0.9 -0.9 2.4 1.9 3.7 5.6 6.2 5.8 5.7 6.0 5.8 5.9 5.6 6.4 6.2 5.6 4.9 2.0 3.0 3.1 2.4 1.6 1.2
-1.3 -1.7 -1.9 -2.1 -2.2 -2.0 -1.9 -1.9 -1.6 -1.6 -1.6 -1.0 -0.3 0.7 1.1 4.5 2.1 1.1 -0.8 0.1 -1.0 0.2 1.7 0.5 1.3 3.3 3.7 6.3 4.7 4.6 6.5 6.5 5.9 5.6 6.4 5.3 6.5 6.5 4.0 3.4 2.9 2.6 2.4 2.0 1.5
-1.5 -1.9 -2.1 -2.2 -2.4 -2.2 -2.0 -1.8 -1.6 -1.5 -1.1 -0.6 -0.3 1.4 3.4 2.5 1.8 -0.1 -0.9 1.0 -0.5 0.6 1.5 1.7 1.2 0.7 3.9 4.5 5.3 6.5 6.5 6.5 6.5 5.7 6.0 5.9 6.5 6.5 3.4 3.0 2.7 2.5 2.2 2.3 2.3
-1.8 -2.0 -2.3 -2.4 -2.4 -2.5 -2.2 -1.6 -1.3 -1.0 -0.5 -0.0 2.0 3.0 4.8 2.1 1.9 -0.5 -0.8 0.1 -1.0 1.9 2.2 2.0 0.5 2.3 3.5 6.5 6.5 6.5 6.5 6.5 6.5 6.0 6.5 6.5 6.5 6.2 4.2 3.7 3.3 2.3 2.0 1.9 2.0
-2.0 -2.3 -2.5 -2.4 -2.4 -2.2 -2.1 -1.7 0.6 0.7 0.2 1.2 0.8 4.2 2.7 2.6 0.9 0.5 -0.8 -0.6 1.4 2.1 3.6 1.1 0.5 6.5 6.5 6.5 6.5 6.5 6.5 6.5 6.5 6.5 6.5 6.5 6.5 6.5 4.6 4.8 3.5 2.0 1.8 1.5 1.5
-2.1 -2.5 -2.6 -2.5 -2.3 -2.2 -1.3 -0.7 1.7 2.7 -1.5 2.7 3.4 3.8 2.7 0.7 0.2 2.1 -1.5 -0.1 2.7 1.0 6.5 3.9 6.5 6.5 6.5 6.5 6.5 6.5 6.5 6.5 6.5 6.5 6.5 6.5 6.5 6.5 5.0 5.5 4.3 2.5 2.1 1.2 0.8
-2.6 -2.8 -2.7 -2.5 -1.6 -2.5 -3.1 -2.2 -1.8 -0.0 4.1 2.7 2.8 3.1 2.7 1.1 2.7 2.3 -0.2 2.9 3.5 6.5 5.9 6.5 6.5 6.5 6.5 6.5 6.5 6.5 6.5 6.5 6.5 6.5 6.5 6.5 6.5 6.5 6.2 6.3 4.8 3.4 2.1 1.1 2.2
-3.1 -2.8 -2.8 -2.3 -1.5 -2.7 -4.0 -2.9 -2.9 -2.3 3.6 4.7 3.2 3.5 3.4 2.7 3.5 2.8 1.2 3.9 5.8 6.5 6.5 6.5 6.5 6.4 6.5 6.5 6.5 6.5 6.5 6.5 6.5 6.5 6.5 6.5 6.5 6.5 6.5 5.7 5.1 3.9 2.7 2.3 1.3
-3.2 -2.6 -2.8 -1.3 -0.2 -2.6 -2.3 -2.5 -2.9 -2.7 6.5 6.4 5.4 4.5 3.8 3.5 5.2 3.3 1.7 4.0 5.4 6.5 6.5 6.5 6.4 6.5 6.5 6.5 6.5 6.5 6.5 6.5 6.5 6.5 6.5 6.5 6.5 6.5 6.5 6.5 6.4 5.0 3.6 3.6 2.6
-3.2 -2.7 -2.8 -0.1 -2.2 -1.9 -1.5 -3.1 -3.0 -0.5 6.5 6.5 5.5 4.1 3.5 4.5 4.7 4.4 1.7 3.7 6.5 6.5 6.5 6.5 6.5 6.5 6.5 6.5 6.5 6.5 6.5 6.5 6.5 6.5 6.5 6.5 6.5 6.5 6.5 6.5 6.5 5.9 4.0 3.2 3.5
-3.2 -2.5 -2.1 -3.0 -4.2 -2.9 -3.4 -3.2 -1.4 6.5 6.5 6.5 5.8 5.8 6.1 4.5 4.6 3.4 2.8 1.2 4.9 6.5 6.5 6.5 6.1 6.4 6.5 6.5 6.5 6.5 6.5 6.5 6.5 6.5 6.5 6.5 6.5 6.5 6.5 6.5 6.5 5.9 3.3 3.0 3.4
-3.1 -1.9 -2.3 -3.1 -0.7 -3.1 -3.6 -0.6 6.5 6.5 6.5 6.5 6.5 6.5 6.5 6.5 6.5 6.0 6.5 6.5 6.5 6.5 6.5 6.5 6.5 6.4 6.1 6.5 6.5 6.5 6.5 6.5 6.5 6.5 6.5 6.5 6.5 6.5 6.5 6.5 6.3 5.9 4.3 3.7 3.1
-2.8 -1.6 -3.2 -3.7 -3.1 -3.1 -1.9 5.8 6.5 6.5 6.5 6.5 6.5 6.5 6.5 6.5 6.5 6.5 6.5 6.5 6.5 6.5 6.5 6.5 6.5 6.5 6.4 6.5 6.5 6.5 6.5 6.5 6.5 6.5 6.5 6.5 6.5 6.5 6.5 5.1 4.1 3.7 4.2 5.0 4.6
-2.3 -4.0 -3.6 -3.6 -2.6 -3.2 1.3 6.5 6.5 6.5 6.5 6.5 6.5 6.5 6.5 6.5 6.5 6.5 6.5 6.5 6.5 6.5 6.5 6.5 6.5 6.5 6.5 6.5 6.4 6.5 6.5 6.5 6.5 6.5 6.5 6.5 6.5 6.5 6.5 6.5 5.4 5.2 5.5 4.5 3.4
-3.5 -2.0 -1.4 -2.6 -2.8 -2.3 4.8 6.5 6.5 6.3 6.4 6.5 6.5 6.5 6.5 6.5 6.5 6.5 6.5 6.5 6.5 5.5 5.2 6.5 6.5 6.5 6.5 6.4 6.4 6.5 6.5 6.5 6.5 6.5 6.5 6.5 6.5 6.5 6.5 6.5 6.5 6.2 4.8 3.1 2.5
-3.0 1.5 -0.0 -2.7 -3.5 -1.5 6.5 6.5 6.5 5.7 5.7 6.5 6.5 6.5 6.5 6.5 6.5 6.5 6.5 6.5 6.0 6.5 5.7 6.5 6.5 6.5 6.5 6.5 6.5 6.5 6.5 6.5 6.5 6.5 6.5 6.5 6.5 6.5 6.5 6.5 6.5 5.0 3.6 1.5 1.3
-2.8 4.8 -0.6 -3.7 2.2 3.0 6.5 6.5 6.3 6.2 5.6 6.3 6.3 6.5 6.5 6.5 6.5 6.5 6.5 6.5 3.8 4.7 6.5 6.1 6.5 6.5 6.5 6.5 5.9 6.5 6.5 6.5 6.5 6.5 6.5 6.5 6.5 6.5 6.5 4.2 1.9 1.8 -0.1 -0.6 -0.8
-0.8 -0.5 -0.9 -0.8 6.5 6.5 6.1 6.5 6.1 6.4 6.4 6.5 6.5 6.5 6.4 6.5 6.5 6.5 6.5 5.6 4.7 6.0 6.5 6.5 6.5 6.5 6.5 6.5 6.5 6.5 6.5 6.5 6.5 6.5 6.5 6.5 6.5 6.5 5.6 3.6 -0.5 -0.5 0.2 -0.0 -0.3
-1.2 6.9 0.9 -2.7 0.5 5.7 6.5 6.5 6.5 5.4 6.2 6.0 6.4 6.3 6.5 6.5 6.5 6.5 6.5 6.4 5.4 6.2 7.0 6.4 6.5 6.5 6.5 6.5 6.5 6.5 6.5 6.5 6.5 6.5 6.5 6.5 6.5 6.5 6.5 6.5 2.8 1.3 1.3 -0.6 -0.8
-1.2 3.3 3.7 6.5 5.3 5.7 6.2 6.5 6.5 6.5 5.9 5.8 6.5 6.5 6.5 6.5 6.5 6.5 6.5 6.5 6.4 6.6 6.1 6.3 6.5 6.5 6.5 6.5 6.5 6.5 6.5 6.5 6.5 6.5 6.5 6.5 6.5 6.5 6.5 6.5 1.6 -0.1 -1.3 -0.1 0.7
2.5 1.8 1.4 2.4 3.9 6.3 6.3 6.5 6.5 6.5 6.3 6.5 6.5 6.5 6.5 6.5 6.5 6.5 6.5 6.5 6.5 6.5 6.5 6.4 6.5 6.5 6.5 6.5 6.5 6.5 6.5 6.5 6.5 6.5 6.5 6.5 6.5 6.5 5.8 1.0 0.4 1.0 -0.6 1.0 0.5
-0.6 0.5 1.4 4.5 5.1 6.3 6.5 6.5 6.5 6.0 4.6 4.7 5.0 6.5 6.5 6.1 5.1 5.6 5.5 5.4 6.1 6.4 6.5 6.5 6.5 6.5 6.5 6.5 6.5 6.5 6.5 6.5 6.5 6.5 6.5 6.5 6.5 5.9 6.4 2.6 -1.4 0.6 0.2 1.1 0.3
Wind_Speed
7 8 9 10 10 11 12 13 13 14 14 14 14 13 9 10 6 6 7 8 12 23 19 8 0 5 4 4 5 3 4 3 6 6 3 3 3 0 1 3 2 4 3 2 6
8 9 9 10 10 12 13 13 13 14 14 14 13 12 9 8 2 8 6 21 20 18 6 6 5 5 5 4 4 5 4 4 1 1 3 4 2 4 2 2 3 2 4 4 6
10 10 11 11 11 12 12 13 13 14 14 14 13 12 10 5 2 5 19 26 23 15 3 1 1 2 5 5 6 4 3 3 2 2 2 4 1 1 3 4 7 7 7 7 5
11 10 10 11 11 12 13 14 15 14 15 14 13 12 9 1 2 4 21 27 19 11 4 1 4 4 5 4 3 6 4 2 2 2 2 2 1 3 6 4 2 6 8 7 8
11 11 11 11 12 13 13 15 15 15 15 14 13 13 0 7 3 9 21 21 8 4 6 3 5 3 5 4 3 4 2 4 2 2 1 1 4 5 8 8 3 7 8 9 8
12 12 12 12 12 13 14 15 15 14 13 12 13 6 4 6 4 11 16 8 6 6 7 7 3 3 7 4 4 3 4 3 2 2 2 2 2 2 1 4 7 6 7 8 8
13 13 13 13 13 13 14 14 13 11 10 10 11 3 7 2 3 12 11 3 5 3 4 3 1 4 4 4 4 5 3 2 5 5 2 3 2 5 4 4 9 8 7 7 7
14 14 14 13 13 13 13 14 13 12 11 7 7 2 3 1 4 5 8 2 6 4 3 2 5 7 5 2 5 4 4 4 2 8 3 3 6 2 3 5 6 9 8 7 6
16 16 15 14 13 14 14 15 12 9 7 6 1 2 2 2 5 5 5 5 7 2 3 3 6 5 6 3 4 7 1 3 6 4 4 6 8 4 3 5 7 8 8 7 6
17 16 16 15 15 16 14 5 6 4 5 1 2 3 6 6 6 6 4 4 3 4 3 9 6 5 6 7 1 4 4 4 5 6 5 5 13 10 6 8 10 8 7 7 6
17 17 16 17 16 14 4 3 4 4 11 5 1 0 5 9 3 7 5 6 3 10 6 6 9 4 3 3 1 0 1 4 4 2 6 2 9 15 9 1 7 8 6 8 8
18 18 18 16 11 6 4 5 1 2 6 2 1 2 1 2 6 10 9 6 8 5 6 6 4 2 3 1 1 0 2 4 6 1 2 6 13 6 5 2 4 8 8 9 4
18 17 18 15 3 7 5 4 2 1 4 3 2 2 4 4 3 9 7 3 6 6 7 6 0 2 1 3 5 1 2 2 4 9 1 7 6 4 2 4 3 2 4 4 8
18 17 19 8 5 0 3 3 3 2 4 7 6 4 3 1 4 2 3 2 7 3 3 6 2 2 1 2 2 4 2 1 5 5 3 5 3 4 2 2 4 4 1 1 3
18 16 12 11 6 4 1 4 3 1 3 4 6 1 5 6 4 6 3 5 4 3 1 2 4 4 3 2 1 5 2 2 2 3 3 4 3 5 0 3 3 4 6 5 4
16 16 6 5 4 0 3 3 2 6 4 4 3 7 4 6 7 6 6 8 0 2 5 3 1 2 1 3 2 4 1 1 3 2 3 3 3 5 4 4 4 3 6 6 6
10 10 6 2 1 2 1 2 5 6 3 4 4 5 0 5 6 8 6 8 4 5 7 4 1 1 2 3 1 6 5 4 5 4 4 2 3 7 1 2 7 8 6 5 7
6 4 6 4 2 1 2 5 2 2 1 1 2 3 2 4 3 6 2 3 4 2 3 3 6 3 5 3 3 3 4 4 4 2 5 2 5 4 3 4 6 7 7 5 4
2 3 3 6 4 2 5 4 4 4 1 3 3 2 3 2 0 4 3 3 2 1 4 3 5 2 4 1 3 0 2 2 5 0 3 3 7 5 2 3 5 5 3 5 6
2 2 2 7 3 4 5 4 3 0 1 1 1 1 2 4 4 5 0 3 2 4 2 3 4 2 1 1 3 3 1 3 3 3 5 5 5 5 8 10 7 5 6 6 5
3 3 2 5 2 6 3 4 2 1 1 1 1 2 2 2 1 2 2 2 3 4 3 3 3 3 1 4 5 2 3 3 3 3 4 3 6 6 12 17 13 8 5 7 8
2 2 2 2 4 2 2 1 1 1 1 1 2 3 2 0 2 2 3 4 6 6 4 3 4 3 8 2 2 2 5 4 3 3 2 1 8 1 5 5 8 7 7 8 7
2 2 2 3 3 2 2 0 1 2 2 2 2 1 3 2 2 3 2 1 5 5 5 5 1 4 6 2 2 3 4 3 2 1 9 5 7 2 2 4 6 7 8 8 6
3 3 4 4 1 5 2 1 1 0 1 1 1 1 1 2 4 3 3 3 4 2 2 5 1 7 10 11 4 3 5 5 5 4 8 15 15 16 9 4 7 9 9 8 8
4 1 2 3 4 2 2 1 1 3 1 2 1 5 6 2 3 5 3 2 2 5 2 4 6 5 14 17 6 11 18 11 15 20 11 18 9 18 9 8 7 7 7 9 10
2 3 1 1 2 2 0 4 5 2 5 3 4 3 7 6 10 14 5 5 6 2 5 2 4 1 5 14 5 7 19 20 17 17 19 24 26 25 24 4 7 11 7 10 10
1 1 4 2 1 2 3 3 4 3 5 5 9 4 6 15 5 4 4 2 3 9 9 6 3 2 7 1 6 10 12 6 4 4 6 9 14 1 3 3 6 7 8 11 8
Wind_Direction
354 353 350 345 341 341 342 343 348 350 354 353 350 354 351 346 0 37 41 318 322 322 329 294 329 359 47 65 37 118 67 161 188 165 155 174 146 192 114 132 191 186 117 310 120
349 347 343 342 339 339 337 340 345 347 348 345 345 347 346 348 84 55 339 340 333 332 348 12 4 358 51 29 19 65 93 176 58 67 155 163 147 159 151 205 242 152 64 97 115
346 343 339 336 336 332 331 335 339 343 342 340 338 337 339 330 99 328 343 341 336 338 219 271 268 47 63 34 1 13 110 151 49 77 55 131 125 304 179 231 220 196 165 158 156
340 336 333 332 330 329 330 330 333 335 338 340 336 327 330 327 53 291 340 337 335 342 139 347 24 55 70 61 349 85 55 47 128 30 64 113 318 265 197 232 294 187 156 157 179
340 337 334 332 330 328 328 326 327 328 332 336 335 334 349 41 346 318 337 335 350 22 51 37 55 93 94 93 80 71 109 54 78 52 39 100 243 245 248 239 124 129 139 175 194
342 338 335 333 331 327 325 323 323 321 327 333 339 339 62 67 299 331 342 339 12 21 15 32 85 102 92 66 69 104 97 110 55 27 340 332 255 19 254 138 165 156 178 187 195
345 341 337 332 327 324 322 321 321 321 324 330 344 40 63 133 345 337 351 323 354 18 38 34 32 77 133 95 151 137 84 90 20 350 328 346 187 223 228 134 197 204 205 214 219
347 344 337 331 327 324 322 316 312 313 317 323 338 68 100 280 328 359 340 333 359 7 67 24 70 95 53 104 42 43 56 15 15 357 325 29 275 175 110 148 197 189 200 213 225
346 343 337 336 329 324 318 311 305 313 304 313 59 48 12 334 25 324 33 339 305 334 44 62 65 75 30 45 30 12 39 351 321 37 324 41 276 226 147 201 214 195 201 213 235
344 339 338 338 331 326 313 293 322 28 360 68 76 37 23 316 307 333 338 357 6 322 25 38 48 62 26 33 192 322 342 320 256 340 354 289 267 292 282 207 216 206 214 220 230
342 340 342 339 336 343 11 39 23 354 40 80 293 268 324 302 274 357 354 340 26 55 36 16 60 48 327 5 323 250 265 271 262 63 336 292 288 295 305 205 212 224 223 228 231
345 342 341 338 333 5 62 75 83 156 84 8 203 349 272 330 358 348 5 54 45 45 335 32 59 284 282 308 305 233 304 289 287 342 13 347 304 288 306 334 195 195 211 221 225
347 342 340 339 320 39 74 95 327 313 86 9 48 15 316 25 70 323 19 16 62 49 20 100 105 313 307 38 10 251 198 337 251 324 232 321 312 337 9 12 48 164 211 216 225
347 344 348 351 53 293 48 320 332 310 73 328 349 5 349 59 45 315 15 74 35 96 74 83 339 347 343 57 8 320 73 359 300 18 274 18 266 277 319 42 46 41 98 129 158
345 346 357 47 142 62 235 318 319 33 37 312 324 265 334 65 310 6 358 29 69 47 96 301 10 16 35 350 69 257 339 275 117 103 41 325 79 254 295 113 116 88 90 94 119
344 351 7 22 53 80 318 341 36 45 258 4 329 349 15 20 359 314 30 35 128 107 42 100 113 61 270 287 234 328 255 139 62 98 17 246 103 278 179 175 129 71 74 83 76
349 7 44 41 83 321 17 49 39 116 2 331 333 12 357 339 356 28 30 12 53 37 10 344 74 76 20 329 159 34 38 336 352 3 225 204 15 244 299 38 142 133 120 75 42
358 34 41 57 4 348 60 55 101 146 238 353 323 312 34 1 30 10 67 40 53 49 76 60 328 22 1 102 194 24 127 144 261 277 291 261 249 271 310 95 120 120 106 82 6
30 1 39 343 359 29 73 59 204 195 170 342 315 52 333 31 234 47 50 179 227 110 121 44 278 108 47 94 102 256 40 180 102 149 34 258 292 318 67 87 110 118 36 330 316
71 51 344 332 356 61 72 197 188 2 16 40 337 69 311 312 8 33 218 226 204 191 200 193 316 86 108 108 52 108 172 36 12 337 294 283 276 233 204 198 196 183 246 272 274
52 47 282 347 40 49 121 208 194 166 137 50 199 272 215 296 284 292 235 210 195 164 99 131 110 274 130 191 180 34 5 30 124 134 205 292 259 210 198 204 199 216 293 302 308
69 22 317 50 42 35 87 360 60 143 34 7 85 135 204 74 276 269 245 215 155 152 141 217 150 270 246 70 144 130 196 152 125 249 208 218 269 156 223 220 162 239 274 275 240
64 280 335 74 91 21 276 77 170 162 220 191 233 205 200 245 338 219 250 97 157 152 172 184 255 302 300 9 30 176 212 143 115 96 208 236 260 315 327 269 236 267 295 307 278
61 13 340 44 45 121 157 218 247 255 262 183 160 93 146 252 214 285 252 197 193 211 158 156 237 204 261 260 140 227 208 217 203 220 256 228 265 280 281 239 266 287 294 280 278
30 244 176 320 350 63 75 293 226 240 252 201 215 223 174 234 248 229 230 170 203 208 129 163 229 226 253 272 260 266 260 219 211 240 242 267 246 262 255 263 245 253 283 294 314
89 110 26 242 316 322 83 225 201 211 151 218 215 213 186 202 204 270 212 194 207 125 169 179 247 178 249 260 253 252 259 249 232 242 256 263 274 270 273 262 279 270 276 283 277
285 357 104 295 45 88 231 231 229 149 235 213 206 183 206 233 241 270 262 266 192 162 190 181 202 177 270 359 305 276 256 201 173 235 172 200 235 210 284 267 260 278 268 272 276